Egegik, AK

11:46 AM AKST on January 18, 2017 (GMT -0900)
Egegik

Weather History for PAII - November, 2013

Change the Weather History Date:

Friday, November 15, 2013

  Actual Average (PAKN) Record (PAKN)
Temperature  
Mean Temperature 38 °F -  
Max Temperature 42 °F 29 °F 50 °F (2014)
Min Temperature 32 °F 14 °F -26 °F (1977)
Degree Days  
Heating Degree Days 28    
Moisture  
Dew Point 37 °F    
Average Humidity 92    
Maximum Humidity 100    
Minimum Humidity 87    
Precipitation  
Precipitation 0.09 in - - ()
Sea Level Pressure  
Sea Level Pressure 30.14 in    
Wind  
Wind Speed 7 mph (West)    
Max Wind Speed 18 mph    
Max Gust Speed 24 mph    
Visibility 7 miles    
Events      
Averages and records for this station are not official NWS values.
T = Trace of Precipitation, MM = Missing Value Source: NWS Daily Summary

Daily Weather History Graph

Daily Weather History Graph

Search for Another Location

Airport or City:

Trip Planner

Search our weather history database for the weather conditions in past years. The results will help you decide how hot, cold, wet, or windy it might be!

Date:

Astronomy

Nov. 15, 2013 Rise Set
Actual Time 9:18 AM AKST 5:09 PM AKST
Civil Twilight 8:32 AM AKST 5:55 PM AKST
Nautical Twilight 7:43 AM AKST 6:44 PM AKST
Astronomical Twilight 6:56 AM AKST 7:30 PM AKST
Moon 4:31 PM AKST (11/15) 7:04 AM AKST (11/15)
Length of Visible Light 9h 22m
Length of Day
7h 51m
Waxing Gibbous, 97% of the Moon is Illuminated
Nov 15
Waxing Gibbous
Nov 17
Full
Nov 25
Last Quarter
Dec 2
New
Dec 9
First Quarter

Hourly Weather History & Observations

Time (AKST) Temp. Windchill Dew Point Humidity Pressure Visibility Wind Dir Wind Speed Gust Speed Precip Events Conditions
12:16 AM 39.2 °F 34.2 °F 35.6 °F 87% 30.23 in 10.0 mi WNW 6.9 mph - N/A   Overcast
12:36 AM 39.2 °F 35.9 °F 37.4 °F 93% 30.22 in 10.0 mi NW 4.6 mph - N/A   Overcast
12:56 AM 39.2 °F 35.0 °F 35.6 °F 87% 30.22 in 10.0 mi WNW 5.8 mph - N/A   Mostly Cloudy
1:16 AM 39.2 °F 35.0 °F 35.6 °F 87% 30.22 in 10.0 mi NW 5.8 mph - N/A   Overcast
1:36 AM 39.2 °F 35.0 °F 35.6 °F 87% 30.22 in 10.0 mi NW 5.8 mph - N/A   Overcast
1:56 AM 37.4 °F 33.8 °F 35.6 °F 93% 30.22 in 10.0 mi NNW 4.6 mph - N/A   Overcast
2:16 AM 37.4 °F - 35.6 °F 93% 30.21 in 10.0 mi Calm Calm - N/A   Overcast
2:36 AM 37.4 °F - 35.6 °F 93% 30.21 in 6.0 mi Calm Calm - N/A   Overcast
2:56 AM 37.4 °F - 35.6 °F 93% 30.21 in 6.0 mi Calm Calm - N/A   Overcast
3:16 AM 37.4 °F - 35.6 °F 93% 30.21 in 7.0 mi Calm Calm - N/A   Overcast
3:36 AM 37.4 °F - 35.6 °F 93% 30.21 in 7.0 mi Calm Calm - N/A   Overcast
3:56 AM 37.4 °F - 35.6 °F 93% 30.20 in 7.0 mi Calm Calm - N/A   Overcast
4:16 AM 37.4 °F - 35.6 °F 93% 30.19 in 6.0 mi Calm Calm - N/A   Overcast
4:36 AM 37.4 °F - 35.6 °F 93% 30.20 in 7.0 mi Calm Calm - N/A   Overcast
4:56 AM 37.4 °F - 35.6 °F 93% 30.18 in 4.0 mi Calm Calm - N/A   Overcast
5:16 AM 35.6 °F - 35.6 °F 100% 30.18 in 6.0 mi Calm Calm - N/A   Overcast
5:36 AM 35.6 °F - 35.6 °F 100% 30.19 in 10.0 mi Calm Calm - N/A   Overcast
5:56 AM 35.6 °F 32.8 °F 33.8 °F 93% 30.18 in 10.0 mi East 3.5 mph - N/A   Overcast
6:16 AM 35.6 °F 31.7 °F 33.8 °F 93% 30.17 in 10.0 mi East 4.6 mph - N/A   Overcast
6:36 AM 35.6 °F 31.7 °F 33.8 °F 93% 30.17 in 10.0 mi SE 4.6 mph - N/A   Overcast
6:56 AM 35.6 °F 30.7 °F 33.8 °F 93% 30.15 in 10.0 mi SE 5.8 mph - N/A   Overcast
7:16 AM 35.6 °F 30.7 °F 33.8 °F 93% 30.15 in 9.0 mi SE 5.8 mph - N/A   Overcast
7:36 AM 35.6 °F 30.7 °F 33.8 °F 93% 30.15 in 8.0 mi SE 5.8 mph - N/A   Overcast
7:56 AM 35.6 °F 31.7 °F 33.8 °F 93% 30.14 in 6.0 mi SE 4.6 mph - N/A   Overcast
8:16 AM 35.6 °F 30.7 °F 33.8 °F 93% 30.13 in 6.0 mi SSE 5.8 mph - N/A   Overcast
8:36 AM 35.6 °F 30.7 °F 35.6 °F 100% 30.13 in 3.0 mi SE 5.8 mph - N/A   Overcast
8:56 AM 35.6 °F 30.7 °F 35.6 °F 100% 30.12 in 3.0 mi SE 5.8 mph - 0.01 in   Overcast
9:16 AM 35.6 °F 29.2 °F 35.6 °F 100% 30.11 in 5.0 mi SE 8.1 mph - N/A   Overcast
9:36 AM 37.4 °F 32.1 °F 35.6 °F 93% 30.11 in 8.0 mi SSE 6.9 mph - N/A   Overcast
9:56 AM 37.4 °F 31.4 °F 35.6 °F 93% 30.10 in 2.5 mi SSE 8.1 mph - 0.01 in   Overcast
10:16 AM 37.4 °F 32.8 °F 35.6 °F 93% 30.10 in 3.0 mi South 5.8 mph - 0.02 in   Overcast
10:36 AM 37.4 °F 33.8 °F 37.4 °F 100% 30.09 in 2.5 mi South 4.6 mph - 0.02 in   Overcast
10:56 AM 41.0 °F 34.7 °F 39.2 °F 93% 30.09 in 2.0 mi WSW 10.4 mph - 0.03 in   Overcast
11:16 AM 42.8 °F 36.6 °F 39.2 °F 87% 30.08 in 2.5 mi WSW 11.5 mph - N/A   Overcast
11:36 AM 42.8 °F 36.2 °F 39.2 °F 87% 30.08 in 4.0 mi WSW 12.7 mph - 0.01 in   Overcast
11:56 AM 42.8 °F 36.6 °F 39.2 °F 87% 30.08 in 3.0 mi WSW 11.5 mph - 0.01 in   Overcast
12:16 PM 42.8 °F 36.2 °F 41.0 °F 93% 30.09 in 3.0 mi West 12.7 mph - N/A   Overcast
12:36 PM 42.8 °F 36.2 °F 41.0 °F 93% 30.09 in 2.5 mi West 12.7 mph - N/A   Overcast
12:56 PM 42.8 °F 36.2 °F 41.0 °F 93% 30.09 in 3.0 mi West 12.7 mph - N/A   Overcast
1:16 PM 42.8 °F 36.6 °F 41.0 °F 93% 30.08 in 8.0 mi West 11.5 mph - 0.01 in   Overcast
1:36 PM 42.8 °F 35.4 °F 39.2 °F 87% 30.08 in 7.0 mi West 15.0 mph 20.7 mph 0.01 in   Overcast
1:56 PM 42.8 °F 36.6 °F 39.2 °F 87% 30.08 in 10.0 mi West 11.5 mph 19.6 mph 0.01 in   Overcast
2:16 PM 42.8 °F 35.8 °F 39.2 °F 87% 30.09 in 10.0 mi West 13.8 mph - N/A   Overcast
2:36 PM 42.8 °F 35.8 °F 41.0 °F 93% 30.09 in 7.0 mi West 13.8 mph 18.4 mph N/A   Overcast
2:56 PM 42.8 °F 35.8 °F 41.0 °F 93% 30.08 in 3.0 mi West 13.8 mph 19.6 mph N/A   Overcast
3:16 PM 42.8 °F 35.4 °F 41.0 °F 93% 30.08 in 3.0 mi West 15.0 mph 19.6 mph N/A   Overcast
3:36 PM 42.8 °F 34.5 °F 41.0 °F 93% 30.08 in 7.0 mi West 18.4 mph 23.0 mph N/A   Overcast
3:56 PM 42.8 °F 35.1 °F 39.2 °F 87% 30.08 in 6.0 mi West 16.1 mph - N/A   Overcast
4:16 PM 42.8 °F 34.8 °F 39.2 °F 87% 30.08 in 3.0 mi West 17.3 mph 24.2 mph N/A   Overcast
4:36 PM 42.8 °F 35.4 °F 39.2 °F 87% 30.07 in 5.0 mi West 15.0 mph 20.7 mph N/A   Overcast
4:56 PM 42.8 °F 34.8 °F 39.2 °F 87% 30.08 in 5.0 mi West 17.3 mph - N/A   Overcast
5:16 PM 42.8 °F 35.4 °F 39.2 °F 87% 30.08 in 7.0 mi West 15.0 mph 20.7 mph N/A   Overcast
5:36 PM 42.8 °F 35.1 °F 39.2 °F 87% 30.08 in 3.0 mi West 16.1 mph 24.2 mph N/A   Overcast
5:56 PM 41.0 °F 33.1 °F 39.2 °F 93% 30.09 in 8.0 mi West 15.0 mph - N/A   Overcast
6:16 PM 41.0 °F 33.5 °F 39.2 °F 93% 30.09 in 5.0 mi West 13.8 mph - N/A   Overcast
6:36 PM 41.0 °F 33.1 °F 39.2 °F 93% 30.10 in 10.0 mi West 15.0 mph 20.7 mph N/A   Overcast
6:56 PM 41.0 °F 32.8 °F 39.2 °F 93% 30.10 in 10.0 mi West 16.1 mph 23.0 mph N/A   Overcast
7:16 PM 41.0 °F 33.5 °F 39.2 °F 93% 30.10 in 10.0 mi West 13.8 mph - N/A   Overcast
7:36 PM 41.0 °F 33.5 °F 39.2 °F 93% 30.11 in 10.0 mi West 13.8 mph - N/A   Overcast
7:56 PM 41.0 °F 34.3 °F 39.2 °F 93% 30.12 in 10.0 mi West 11.5 mph - N/A   Overcast
8:16 PM 41.0 °F 33.5 °F 39.2 °F 93% 30.12 in 10.0 mi WNW 13.8 mph - N/A   Overcast
8:36 PM 41.0 °F 33.5 °F 39.2 °F 93% 30.12 in 8.0 mi WNW 13.8 mph - 0.01 in   Overcast
8:56 PM 39.2 °F 33.0 °F 39.2 °F 100% 30.14 in 3.0 mi North 9.2 mph - 0.01 in   Overcast
9:16 PM 35.6 °F 28.0 °F 35.6 °F 100% 30.16 in 9.0 mi North 10.4 mph - N/A   Overcast
9:56 PM 33.8 °F 25.3 °F 33.8 °F 100% 30.18 in 10.0 mi North 11.5 mph - N/A   Mostly Cloudy
10:16 PM 33.8 °F 25.3 °F 32.0 °F 93% 30.19 in 9.0 mi North 11.5 mph - N/A   Overcast
10:36 PM 33.8 °F 24.8 °F 32.0 °F 93% 30.21 in 10.0 mi North 12.7 mph 17.3 mph N/A   Overcast
10:56 PM 33.8 °F 25.3 °F 30.2 °F 87% 30.21 in 10.0 mi North 11.5 mph 18.4 mph 0.01 in   Overcast
11:16 PM 33.8 °F 24.3 °F 30.2 °F 87% 30.23 in 10.0 mi North 13.8 mph 18.4 mph N/A   Overcast
11:36 PM 33.8 °F 24.8 °F 30.2 °F 87% 30.23 in 10.0 mi North 12.7 mph 18.4 mph N/A   Overcast
11:56 PM 32.0 °F 23.0 °F 28.4 °F 87% 30.25 in 10.0 mi North 11.5 mph - N/A   Mostly Cloudy